TimeMST,TemperatureF,Dew PointF,Humidity,Sea Level PressureIn,VisibilityMPH,Wind Direction,Wind SpeedMPH,Gust SpeedMPH,PrecipitationIn,Events,Conditions,WindDirDegrees,DateUTC
12:53 AM,15.1,6.1,68,29.87,10.0,SW,17.3,-,N/A,,Clear,230,2013-02-23 07:53:00
1:53 AM,14.0,5.0,67,29.85,10.0,SSW,17.3,-,N/A,,Clear,210,2013-02-23 08:53:00
2:53 AM,16.0,6.1,65,29.81,10.0,WSW,21.9,-,N/A,,Clear,240,2013-02-23 09:53:00
3:53 AM,17.1,7.0,65,29.79,10.0,SW,19.6,26.5,N/A,,Clear,230,2013-02-23 10:53:00
4:53 AM,16.0,6.1,65,29.80,10.0,SW,16.1,-,N/A,,Clear,230,2013-02-23 11:53:00
5:53 AM,16.0,6.1,65,29.83,10.0,SW,17.3,-,N/A,,Clear,220,2013-02-23 12:53:00
6:53 AM,17.1,7.0,65,29.85,10.0,SW,23.0,-,N/A,,Clear,220,2013-02-23 13:53:00
7:53 AM,19.0,8.1,62,29.85,10.0,SSW,21.9,27.6,N/A,,Clear,210,2013-02-23 14:53:00
8:53 AM,21.9,10.9,63,29.82,10.0,SSW,16.1,24.2,N/A,,Overcast,200,2013-02-23 15:53:00
9:53 AM,24.1,10.9,57,29.79,10.0,South,13.8,-,N/A,,Overcast,190,2013-02-23 16:53:00
10:53 AM,28.0,12.9,53,29.73,10.0,SW,18.4,-,N/A,,Mostly Cloudy,230,2013-02-23 17:53:00
11:53 AM,28.9,14.0,54,29.69,-9999.0,SSW,23.0,31.1,N/A,,Partly Cloudy,210,2013-02-23 18:53:00
12:53 PM,28.9,14.0,54,29.67,10.0,SW,23.0,29.9,N/A,,Overcast,220,2013-02-23 19:53:00
1:53 PM,30.0,16.0,56,29.64,10.0,SW,23.0,33.4,N/A,,Partly Cloudy,230,2013-02-23 20:53:00
2:53 PM,32.0,17.1,54,29.60,10.0,SW,25.3,32.2,N/A,,Mostly Cloudy,220,2013-02-23 21:53:00
3:53 PM,32.0,17.1,54,29.60,10.0,SSW,15.0,-,N/A,,Overcast,210,2013-02-23 22:53:00
4:53 PM,30.0,18.0,61,29.63,10.0,SW,15.0,-,N/A,,Clear,230,2013-02-23 23:53:00
5:53 PM,28.0,18.0,66,29.66,10.0,WSW,12.7,-,N/A,,Overcast,240,2013-02-24 00:53:00
6:53 PM,25.0,21.0,85,29.71,6.0,NNE,9.2,17.3,0.00,Snow,Light Snow,30,2013-02-24 01:53:00
7:02 PM,24.8,21.2,86,29.62,2.5,NE,11.5,-,0.00,Snow,Light Snow,40,2013-02-24 02:02:00
7:23 PM,24.8,21.2,86,29.63,3.0,NE,11.5,-,0.00,Snow,Light Snow,50,2013-02-24 02:23:00
7:31 PM,24.8,21.2,86,29.63,1.8,NE,10.4,-,0.00,Snow,Light Snow,50,2013-02-24 02:31:00
7:45 PM,23.0,21.2,93,29.64,2.5,NE,9.2,-,0.00,Snow,Light Snow,50,2013-02-24 02:45:00
7:53 PM,23.0,21.0,92,29.73,3.0,NE,10.4,-,0.00,Snow,Light Snow,50,2013-02-24 02:53:00
8:25 PM,23.0,21.2,93,29.64,2.5,NNE,9.2,-,0.00,Snow,Light Snow,30,2013-02-24 03:25:00
8:33 PM,23.0,21.2,93,29.64,6.0,ENE,8.1,19.6,0.00,Snow,Light Snow,60,2013-02-24 03:33:00
8:53 PM,23.0,21.0,92,29.72,6.0,NE,9.2,-,0.00,Snow,Light Snow,50,2013-02-24 03:53:00
9:04 PM,23.0,21.2,93,29.66,2.5,NE,9.2,-,0.00,Snow,Light Snow,50,2013-02-24 04:04:00
9:15 PM,23.0,21.2,93,29.66,1.2,NE,8.1,-,0.00,Snow,Light Snow,50,2013-02-24 04:15:00
9:33 PM,21.2,21.2,100,29.66,1.2,NE,8.1,-,0.00,Snow,Light Snow,50,2013-02-24 04:33:00
9:44 PM,21.2,21.2,100,29.66,2.0,ENE,8.1,-,0.00,Snow,Light Snow,70,2013-02-24 04:44:00
9:53 PM,21.9,21.0,96,29.73,2.5,ENE,4.6,-,0.00,Snow,Light Snow,60,2013-02-24 04:53:00
10:09 PM,21.2,19.4,93,29.66,4.0,ENE,9.2,-,0.00,Snow,Light Snow,60,2013-02-24 05:09:00
10:53 PM,21.0,19.9,96,29.70,3.0,NE,6.9,-,0.00,Snow,Light Snow,50,2013-02-24 05:53:00
11:04 PM,21.2,19.4,93,29.65,3.0,NE,6.9,-,0.00,Snow,Light Snow,50,2013-02-24 06:04:00
11:26 PM,21.2,19.4,93,29.65,2.0,NE,6.9,-,0.00,Snow,Light Snow,50,2013-02-24 06:26:00
11:33 PM,21.2,19.4,93,29.65,3.0,NE,4.6,-,0.00,Snow,Light Snow,40,2013-02-24 06:33:00
11:53 PM,21.9,19.9,92,29.70,2.5,NNE,4.6,-,0.00,Snow,Light Snow,30,2013-02-24 06:53:00